Beaumont, TX

7:35 AM CDT on June 26, 2017 (GMT -0500)
Southeast Texas Regional

Weather History for KBPT - April, 2014

Change the Weather History Date:

Sunday, April 13, 2014

  Actual Average Record
Temperature  
Mean Temperature 75 °F 68 °F  
Max Temperature 79 °F 78 °F 88 °F (1943)
Min Temperature 70 °F 58 °F 37 °F (1940)
Degree Days  
Heating Degree Days 0 2  
Month to date heating degree days 9 28  
Since 1 July heating degree days 1682 1389  
Cooling Degree Days 10 4  
Month to date cooling degree days 57 46  
Year to date cooling degree days 104 127  
Growing Degree Days 24 (Base 50)    
Moisture  
Dew Point 68 °F    
Average Humidity 81    
Maximum Humidity 90    
Minimum Humidity 71    
Precipitation  
Precipitation 0.04 in 0.10 in 3.70 in (1906)
Month to date precipitation 0.09 1.28  
Year to date precipitation 9.10 13.65  
Snow  
Snow 0.00 in 0.00 in 0.00 in ()
Month to date snowfall 0.0 0.0  
Since 1 July snowfall 0.3 T  
Snow Depth 0.00 in    
Sea Level Pressure  
Sea Level Pressure 29.87 in    
Wind  
Wind Speed 16 mph (SSE)    
Max Wind Speed 24 mph    
Max Gust Speed 30 mph    
Visibility 8 miles    
Events Rain    
T = Trace of Precipitation, MM = Missing Value Source: NWS Daily Summary

Daily Weather History Graph

Daily Weather History Graph

Search for Another Location

Airport or City:

Trip Planner

Search our weather history database for the weather conditions in past years. The results will help you decide how hot, cold, wet, or windy it might be!

Date:

Astronomy

Apr. 13, 2014 Rise Set
Actual Time 6:51 AM CDT 7:42 PM CDT
Civil Twilight 6:27 AM CDT 8:06 PM CDT
Nautical Twilight 5:58 AM CDT 8:35 PM CDT
Astronomical Twilight 5:28 AM CDT 9:05 PM CDT
Moon 6:25 PM CDT (4/13) 5:43 AM CDT (4/13)
Length of Visible Light 13h 39m
Length of Day
12h 50m
Waxing Gibbous, 97% of the Moon is Illuminated
Apr 13
Waxing Gibbous
Apr 15
Full
Apr 22
Last Quarter
Apr 29
New
May 6
First Quarter

Hourly Weather History & Observations

Time (CDT) Temp. Dew Point Humidity Pressure Visibility Wind Dir Wind Speed Gust Speed Precip Events Conditions
12:08 AM 68.0 °F 64.9 °F 90% 29.95 in 8.0 mi SSE 12.7 mph - N/A   Scattered Clouds
12:34 AM 69.1 °F 64.9 °F 87% 29.95 in 7.0 mi SSE 13.8 mph - N/A   Mostly Cloudy
12:53 AM 70.0 °F 66.0 °F 87% 29.95 in 8.0 mi SSE 16.1 mph 23.0 mph N/A   Overcast
1:53 AM 70.0 °F 66.0 °F 87% 29.92 in 9.0 mi SSE 12.7 mph - N/A   Overcast
2:44 AM 70.0 °F 66.0 °F 87% 29.91 in 9.0 mi SSE 15.0 mph - N/A   Overcast
2:53 AM 70.0 °F 66.9 °F 90% 29.91 in 9.0 mi SSE 15.0 mph 20.7 mph N/A   Overcast
3:53 AM 70.0 °F 66.9 °F 90% 29.90 in 9.0 mi SSE 13.8 mph - N/A   Overcast
4:53 AM 70.0 °F 66.9 °F 90% 29.88 in 8.0 mi SSE 11.5 mph - N/A   Overcast
5:53 AM 71.1 °F 66.9 °F 87% 29.88 in 8.0 mi South 13.8 mph - N/A   Overcast
6:53 AM 71.1 °F 68.0 °F 90% 29.90 in 8.0 mi South 11.5 mph - N/A   Overcast
7:53 AM 71.1 °F 68.0 °F 90% 29.90 in 6.0 mi SSE 12.7 mph - N/A   Overcast
8:53 AM 72.0 °F 68.0 °F 87% 29.91 in 7.0 mi South 11.5 mph - N/A   Overcast
9:53 AM 73.0 °F 68.0 °F 84% 29.93 in 8.0 mi SSE 12.7 mph - N/A   Overcast
10:34 AM 73.0 °F 68.0 °F 84% 29.93 in 9.0 mi SSE 11.5 mph - N/A   Mostly Cloudy
10:53 AM 73.9 °F 66.9 °F 79% 29.94 in 9.0 mi SSE 12.7 mph - N/A   Mostly Cloudy
11:00 AM 73.9 °F 66.9 °F 79% 29.93 in 9.0 mi SSE 12.7 mph - N/A   Overcast
11:53 AM 75.0 °F 68.0 °F 79% 29.92 in 10.0 mi SSE 19.6 mph 27.6 mph N/A   Overcast
12:53 PM 75.9 °F 68.0 °F 76% 29.92 in 10.0 mi South 15.0 mph 24.2 mph N/A   Overcast
1:53 PM 78.1 °F 68.0 °F 71% 29.88 in 10.0 mi SSE 17.3 mph 28.8 mph N/A   Overcast
2:53 PM 75.9 °F 68.0 °F 76% 29.86 in 10.0 mi South 15.0 mph 23.0 mph N/A   Overcast
3:53 PM 75.0 °F 69.1 °F 82% 29.83 in 9.0 mi SSE 17.3 mph 27.6 mph N/A   Overcast
4:06 PM 75.0 °F 69.1 °F 82% 29.83 in 9.0 mi SSE 16.1 mph 25.3 mph N/A   Overcast
4:53 PM 73.0 °F 70.0 °F 90% 29.81 in 3.0 mi SSE 16.1 mph - 0.02 in Rain Light Rain
5:53 PM 73.0 °F 70.0 °F 90% 29.80 in 5.0 mi SSE 16.1 mph 23.0 mph 0.00 in   Overcast
6:39 PM 73.0 °F 69.1 °F 87% 29.79 in 6.0 mi SSE 15.0 mph 23.0 mph N/A   Overcast
6:53 PM 73.4 °F 69.8 °F 88% 29.79 in 5.0 mi SSE 16.1 mph 26.5 mph N/A   Overcast
7:53 PM 72.0 °F 70.0 °F 93% 29.78 in 6.0 mi SSE 19.6 mph 26.5 mph 0.02 in Rain Light Rain
8:53 PM 73.0 °F 70.0 °F 90% 29.76 in 6.0 mi SSE 19.6 mph 29.9 mph 0.00 in   Overcast
9:53 PM 73.0 °F 70.0 °F 90% 29.78 in 7.0 mi South 23.0 mph 28.8 mph N/A   Overcast
10:53 PM 73.0 °F 70.0 °F 90% 29.79 in 6.0 mi South 19.6 mph 28.8 mph N/A   Overcast
11:53 PM 73.0 °F 70.0 °F 90% 29.76 in 6.0 mi South 18.4 mph 27.6 mph N/A   Overcast